Location: Unspecified
(0.0000°N, 0.0000°E)
Time: 22:33:00
(UTC+00:00)

LES 2 - Pass Details

Date: 17 August 2024
Orbit: 2771 x 14804 km, 32.2° (Epoch: 05 September)

Event Time Altitude Azimuth Distance (km) Brightness Sun altitude
Rises 22:35:27 0° 245° (WSW) 7,143 ? -64.5°
Reaches altitude 10° 22:40:20 10° 232° (SW) 6,645 ? -65.5°
Enters shadow 22:49:07 25° 205° (SSW) 6,606 ? -67.4°
Exits shadow 23:21:17 26° 136° (SE) 11,158 ? -73.2°
Drops below altitude 10° 00:22:12 10° 100° (E) 18,217 ? -76.2°
Sets 01:09:49 0° 84° (E) 20,120 ? -69.1°
